Location: Unspecified
(0.0000°N, 0.0000°E)
Time: 03:16:42
(UTC+02:00)

Ariane H10 - Visible Passes

Search period start: 31 July 2014 00:00
Search period end: 10 August 2014 00:00
Orbit: 279 x 24691 km, 3.9° (Epoch: 29 July)

Date Brightness Start Highest point End Pass type
(mag) Time Alt. Az. Time Alt. Az. Time Alt. Az.
31 Jul 8.0 01:09:14 20° E 23:59:45 78° ENE 01:13:10 10° E visible
31 Jul 7.3 16:12:14 10° W 16:24:42 88° N 22:07:58 15° E visible
01 Aug 5.2 01:03:29 10° W 06:03:19 81° S 06:09:57 10° E visible
01 Aug 7.0 21:17:04 10° W 03:18:23 69° E 03:31:26 10° E visible
02 Aug 8.1 18:28:08 10° W 19:13:35 85° N 00:14:16 57° E visible
03 Aug 7.0 15:47:54 10° W 15:58:36 88° N 21:42:40 11° E visible
04 Aug 5.5 00:15:47 10° W 05:38:00 82° S 05:45:38 10° E visible
04 Aug 7.1 20:50:06 10° W 02:56:48 52° E 03:06:32 10° E visible
05 Aug 8.7 18:02:52 10° W 18:38:09 85° N 23:48:51 51° E visible
06 Aug 3.4 07:42:10 10° W 07:55:02 60° S 07:58:08 10° ESE visible
06 Aug 6.8 15:23:01 10° W 15:32:13 88° N 21:10:24 10° E visible
06 Aug 5.8 23:36:51 10° W 05:11:51 83° S 05:20:42 10° E visible
07 Aug 7.2 20:22:56 10° W 02:34:21 37° E 02:40:57 10° E visible
08 Aug 8.4 17:37:09 10° W 18:05:15 85° N 23:23:13 45° E visible
09 Aug 3.7 07:13:25 11° W 07:29:21 64° S 07:32:55 10° ESE visible
09 Aug 6.5 14:57:37 10° W 15:05:32 88° N 20:32:15 10° E visible
09 Aug 10.4 23:01:35 10° W 00:00:00 28° W 00:00:00 28° W visible
